This is the latest recevied weather packets stored in our database for station/object VE7PRT-1. If no packets are shown the sender has not sent any weather packets the latest 10 day(s).
| Time | Temp. | Humidity | Pressure | Rain* | Wind** | Luminosity | Snow |
|---|---|---|---|---|---|---|---|
| 1788019904 | 13.33° C | 99% | 1017.1 hPa | 0 mm | - | - | - |
| 1788019006 | 13.33° C | 99% | 1016.9 hPa | 0 mm | - | - | - |
| 1788018153 | 13.33° C | 99% | 1016.9 hPa | 0 mm | - | - | - |
| 1788017260 | 12.78° C | 10% | - | 0 mm | - | - | - |
| 1788016521 | 11.67° C | 99% | 1016.9 hPa | 0 mm | - | - | - |
| 1788015781 | 11.11° C | 99% | 1016.7 hPa | 0 mm | - | - | - |
| 1788015039 | 11.11° C | 99% | 1016.8 hPa | 0 mm | - | - | - |
| 1788014146 | 10.56° C | 99% | 1016.9 hPa | 0 mm | - | - | - |
| 1788013296 | 10.56° C | 99% | 1016.7 hPa | 0 mm | - | - | - |
| 1788012413 | 11.11° C | 98% | 1016.5 hPa | 0 mm | - | - | - |
| 1788011546 | 11.11° C | 99% | 1016.6 hPa | 0 mm | - | - | - |
| 1788010731 | 11.11° C | 99% | 1016.4 hPa | 0 mm | - | - | - |
| 1788009891 | 11.11° C | 99% | 1016.3 hPa | 0 mm | - | - | - |
| 1788009052 | 11.11° C | 99% | 1016.3 hPa | 0 mm | - | - | - |
| 1788008206 | 10.56° C | 98% | 1016.4 hPa | 0 mm | - | - | - |
| 1788007381 | 10.56° C | 98% | 1016.2 hPa | 0 mm | - | - | - |
| 1788006611 | 11.11° C | 98% | 1016.1 hPa | 0 mm | - | - | - |
| 1788005851 | 11.11° C | 98% | 1015.8 hPa | 0 mm | - | - | - |
| 1788005076 | 11.67° C | 98% | 1016.1 hPa | 0 mm | - | - | - |
| 1788004271 | 11.67° C | 98% | 1016.1 hPa | 0 mm | - | - | - |
| 1788003546 | 11.67° C | 99% | 1016.1 hPa | 0 mm | - | - | - |
| 1788002666 | 11.67° C | 99% | 1016 hPa | 0 mm | - | - | - |
| 1788001866 | 11.67° C | 99% | 1016.2 hPa | 0 mm | - | - | - |
| 1788001111 | 11.67° C | 98% | 1016.2 hPa | 0 mm | - | - | - |
| 1788000326 | 11.67° C | 98% | 1016.1 hPa | 0 mm | - | - | - |
* Rain latest hour (hover to see other rain measurements)
** Current wind speed in m/s (hover to see current wind gust speed)